Tracking 19247 objects as of 24-Sep-2018
HD Live streaming from Space Station
objects crossing your sky now

USA 48

Track USA 48 now!
USA 48 is classified as:


NORAD ID: 20355
Int'l Code: 1989-090B
Perigee: 34,481.0 km
Apogee: 36,846.6 km
Inclination: 18.2 °
Period: 1,429.5 minutes
Semi major axis: 42034 km
RCS: Unknown
Launch date: November 23, 1989
Source: United States (US)
Launch site: AIR FORCE EASTERN TEST RANGE (AFETR)
aabbcc
Your satellite tracking list
Your tracking list is empty




NASA's NSSDC Master Catalog

Two Line Element Set (TLE):
1 20355U 89090B   18170.65198321 0.00000000  00000-0  00000-0 0    06
2 20355  18.2385  11.0735 0281377  31.3242 330.3342  1.00737100    01
Source of the keplerian elements: McCants